Regional Weather Roundup
Issued by NWS

Home | Current Version | Previous Version | Graphics & Text | Print | Product List | Glossary On
Versions: 1 2 3 4 5 6 7 8 9 10 11 12 13 14 15 16 17 18 19 20 21 22 23 24 25 26 27 28 29 30 31 32 33 34 35 36 37 38 39 40 41 42 43 44 45 46 47 48 49 50
000
ASUS43 KMPX 301010
RWRMN
WEATHER ROUNDUP FOR MINNESOTA
NATIONAL WEATHER SERVICE TWIN CITIES/CHANHASSEN MN
500 AM CDT MON MAY 30 2016


NOTE: "FAIR" INDICATES FEW OR NO CLOUDS BELOW 12,000 FEET WITH NO
SIGNIFICANT WEATHER AND/OR OBSTRUCTIONS TO VISIBILITY. N/A MEANS
CURRENT SKY AND/OR WEATHER CONDITIONS ARE NOT AVAILABLE.

MNZ060>063-068>070-301100-
   Twin Cities Metro

CITY           SKY/WX    TMP DP  RH WIND       PRES   REMARKS
TWIN CITIES    PTCLDY    61  57  87 CALM      30.00R
ST PAUL        FOG       56  55  97 CALM      30.00S VSB 1/4
CRYSTAL        CLEAR     54  52  93 CALM      29.98R FOG
BLAINE         CLEAR     57  57 100 CALM      30.00R
EDEN PRAIRIE   CLEAR     60  56  86 CALM      29.99S FOG
SOUTH ST PAUL  CLEAR     57  55  94 CALM      30.00R
LAKE ELMO      FOG       52  52 100 CALM      30.02R VSB<1/4
$$
MNZ001>005-007-008-013>017-022>024-027-028-301100-
   Northwest Minnesota

CITY           SKY/WX    TMP DP  RH WIND       PRES   REMARKS
BEMIDJI        FOG       44  44 100 CALM      29.96R VSB 3/4
HALLOCK        CLEAR     50  48  93 SE3       29.89S FOG
ROSEAU         CLEAR     50  45  81 CALM      29.92S
WARROAD        CLEAR     48  45  87 CALM      29.92S FOG
THIEF RVR FALL CLEAR     54  46  76 S7        29.94S
CROOKSTON      CLEAR     50  46  87 SE6       29.93S
FOSSTON        CLEAR     50  46  87 S6        29.95S
DETROIT LAKES  CLOUDY    61  50  67 SE7       29.98R
MOORHEAD       CLEAR     55  48  76 SE6       29.95R
PARK RAPIDS    MOCLDY    51  46  83 CALM      29.97R
MAHNOMEN       FAIR      55  46  74 S6        29.95R
$$
MNZ006-009>011-018-025>026-301100-
   North Central Minnesota

CITY           SKY/WX    TMP DP  RH WIND       PRES   REMARKS
BAUDETTE       CLEAR     45  44  97 S5        29.92S
FLAG ISLAND    CLEAR     54  52  94 NW1       29.91R
INTL FALLS     CLEAR     45  44  97 CALM      29.91S
WASKISH        CLEAR     48  48 100 CALM      29.93S FOG
BIG FORK       FOG       45  43  93 CALM      29.94S VSB 3/4
LONGVILLE      PTCLDY    45  45 100 CALM      29.97R
GRAND RAPIDS   CLEAR     49  48  97 CALM      29.97S
CRANE LAKE     CLEAR     43  43 100 CALM      29.93S FOG
ORR            CLEAR     48  45  87 CALM      29.90S
COOK           CLEAR     48  46  93 CALM      29.93F
WALKER         FAIR      49  48  97 SW3       29.96R
$$
MNZ012-019>021-037-301100-
   Northeast Minnesota

CITY           SKY/WX    TMP DP  RH WIND       PRES   REMARKS
DULUTH         CLEAR     51  48  89 W6        29.95S
ELY            CLEAR     50  48  93 SW5       29.92S
HIBBING        FOG       40  39  97 CALM      29.95S VSB 3/4
EVELETH        CLEAR     45  43  93 CALM      29.96S FOG
DULUTH HARBOR  CLEAR     54  52  94 S8        29.95S
TWO HARBORS    CLEAR     57  52  82 W3        29.93R
SILVER BAY     CLEAR     54  52  94 W3        29.92R
GRAND MARAIS     N/A     44  43  96 W5        29.88S
G MARAIS ARPRT CLEAR     52  48  87 W6        29.90S
$$
MNZ029>031-032-039>041-046>048-054>057-064-301100-
   West Central Minnesota

CITY           SKY/WX    TMP DP  RH WIND       PRES   REMARKS
FERGUS FALLS   CLEAR     57  48  72 SE3       29.94R
WHEATON        CLEAR     57  48  72 S5        29.98S
MORRIS         CLOUDY    54  48  82 SE6       29.97S
ALEXANDRIA     CLEAR     53  48  83 CALM      29.99S
ELBOW LAKE     FAIR      57  50  76 SE5       29.98R
WADENA         CLOUDY    50  48  93 CALM      29.99R
GLENWOOD       CLEAR     55  50  82 S3        29.99S
APPLETON       MOCLDY    55  48  76 CALM      29.98R
ORTONVILLE     MOCLDY    55  50  82 E3        29.98R
MADISON        CLOUDY    55  50  82 CALM      29.97S
WILLMAR        FAIR      57  52  82 SE3       30.00F
$$
MNZ033>034-036-042>043-049>051-058-059-301100-
   Central Minnesota

CITY           SKY/WX    TMP DP  RH WIND       PRES   REMARKS
ST CLOUD       CLEAR     50  50 100 CALM      29.99R
SAUK CENTRE    FAIR      48  46  91 CALM      29.99S
PAYNESVILLE    PTCLDY    52  52 100 CALM      29.99S
AITKIN         FOG       45  43  93 CALM      29.96R VSB 1/2
PINE RIVER     CLEAR     45  45 100 CALM      30.01R
BRAINERD       CLEAR     49  48  97 S3        29.98R
STAPLES        PTCLDY    48  48 100 CALM      29.98S
LONG PRAIRIE   FAIR      50  50 100 CALM      30.00R
LITTLE FALLS   MOCLDY    50  50 100 CALM      29.99R FOG
LITCHFIELD     CLOUDY    55  55 100 CALM      30.00S
BUFFALO        CLEAR     54  52  93 CALM      30.01R FOG
MAPLE LAKE     CLEAR     53  52  98 CALM      30.00S FOG
HUTCHINSON     CLEAR     56  54  94 CALM      30.00F
$$
MNZ037-044-045-052-053-301100-
   East Central Minnesota

CITY           SKY/WX    TMP DP  RH WIND       PRES   REMARKS
PRINCETON      PTCLDY    50  48  93 CALM      30.00R FOG
MORA           CLEAR     48  46  93 CALM      30.00R
CAMBRIDGE      CLEAR     55  48  76 CALM      29.97S HAZE
RUSH CITY      MOCLDY    49  48  97 CALM      29.99R FOG
MOOSE LAKE       N/A     45  43  93 CALM      29.96R FOG
HINCKLEY         N/A     48  48 100 CALM      29.98R FOG
CLOQUET        CLEAR     54  48  82 W5        29.96S
MCGREGOR         N/A     46  45  93 CALM      29.98R VSB 1/2
$$
MNZ071>073-080-081-089-090-097-098-301100-
   Southwest Minnesota

CITY           SKY/WX    TMP DP  RH WIND       PRES   REMARKS
MONTEVIDEO     CLOUDY    57  52  82 CALM      29.99F
GRANITE FALLS  CLOUDY    57  53  87 CALM      29.99F
CANBY          CLOUDY    61  54  76 W8        30.00R
MARSHALL       CLOUDY    58  52  80 SW6       30.00R
REDWOOD FALLS  CLOUDY    57  50  77 CALM      29.98F
OLIVIA         CLOUDY    55  50  82 CALM      29.98F
PIPESTONE      CLOUDY    61  55  82 SW3       30.05R
WINDOM         CLOUDY    57  54  88 CALM      30.02R
WORTHINGTON    LGT RAIN  62  51  67 SW7       30.06R
JACKSON        CLOUDY    63  48  59 SW3       30.03R
TRACY          CLOUDY    62  54  76 SW13      30.02R
SLAYTON        CLOUDY    62  54  75 SW14      30.05R THUNDER
$$
MNZ065>067-074>077-082>085-091>093-301100-
   South Central Minnesota

CITY           SKY/WX    TMP DP  RH WIND       PRES   REMARKS
MANKATO        CLOUDY    57  52  82 SE6       30.00F
NEW ULM        CLOUDY    57  55  94 SE9       29.99F
ST JAMES       MOCLDY    52  48  87 CALM      30.00S
FAIRMONT       MOCLDY    55  52  88 CALM      30.00R
GLENCOE        CLOUDY    57  56  97 CALM      29.99S
FARIBAULT        N/A     54  54 100 CALM      30.01S VSB 1/2
OWATONNA       CLOUDY    55  54  94 CALM      30.01S FOG
WASECA         CLOUDY    54  52  94 CALM      30.02S
ALBERT LEA     CLOUDY    55  54  94 CALM      30.01F
$$
MNZ078>079-086>088-094>096-301100-
   Southeast Minnesota

CITY           SKY/WX    TMP DP  RH WIND       PRES   REMARKS
ROCHESTER      CLEAR     56  54  93 S5        30.04R
RED WING       CLEAR     54  52  94 CALM      30.00R FOG
STANTON        CLEAR     54  52  93 CALM      29.99F
DODGE CENTER   PTCLDY    54  52  94 CALM      30.02S
WINONA         CLEAR     55  55 100 NW3       30.01S
AUSTIN         CLOUDY    54  52  94 CALM      30.01F
PRESTON        CLEAR     60  53  77 W5        30.03R
$$
ABBREVIATIONS USED IN REMARKS
   TC - TEMPERATURES IN CELSIUS
  WCI - WIND CHILL INDEX
   HX - HEAT INDEX
  VSB - VISIBILITY
$$



USA.gov is the U.S. government's official web portal to all federal, state and local government web resources and services.